Location: Kapla
(46.2483°N, 15.0094°E)
Time: 15:56:47
(UTC+00:00)

SJ 16-02 - Pass Details

Date: 03 March 2021
Orbit: 605 x 617 km, 75.0° (Epoch: 18 April)

Event Time Altitude Azimuth Distance (km) Brightness Sun altitude
Rises 19:34:49 0° 339° (NNW) 2,883 5.4 -28.9°
Reaches altitude 10° 19:37:04 10° 339° (NNW) 1,976 4.4 -29.3°
Enters shadow 19:39:24 31° 338° (NNW) 1,084 2.9 -29.6°
